Regional Weather Roundup
Issued by NWS

Home | Current Version | Previous Version | Graphics & Text | Print | Product List | Glossary On
Versions: 1 2 3 4 5 6 7 8 9 10 11 12 13 14 15 16 17 18 19 20 21 22 23 24 25 26 27 28 29 30 31 32 33 34 35 36 37 38 39 40 41 42 43 44 45 46 47 48 49 50
000
ASUS45 KCYS 240610
RWRWY

WYOMING REGIONAL WEATHER ROUNDUP
NATIONAL WEATHER SERVICE CHEYENNE WY
1100 PM MST TUE DEC 23 2014

NOTE:  "FAIR" INDICATES FEW OR NO CLOUDS BELOW 12,000 FEET
WITH NO SIGNIFICANT WEATHER AND/OR OBSTRUCTIONS TO VISIBILITY.

WYZ001-240700-
YELLOWSTONE NATIONAL PARK

CITY           SKY/WX    TMP DP  RH WIND       PRES   REMARKS
LK YELLOWSTONE   N/A     17  12  80 CALM      30.19S
6HR MIN TEMP:  15; 6HR MAX TEMP:  18;

W YELLOWSTONE  NOT AVBL

$$
WYZ002>013-054>058-071-098>099-240700-
NORTHERN WYOMING

CITY           SKY/WX    TMP DP  RH WIND       PRES   REMARKS
JACKSON        CLOUDY    12  10  92 N5        30.22F WCI   4
CODY           FAIR      36  16  44 W17G31    29.98F WCI  25
GREYBULL       FAIR      21  16  81 S7        30.08F WCI  12
6HR MIN TEMP:  20; 6HR MAX TEMP:  27;

WORLAND        FAIR       9   4  80 SW5       30.08F WCI   1
6HR MIN TEMP:   8; 6HR MAX TEMP:  21;

SHERIDAN       MOCLDY    23  12  62 S5        29.96F WCI  17
6HR MIN TEMP:  20; 6HR MAX TEMP:  27;

BUFFALO        FAIR      25   7  46 SW3       29.99F
6HR MIN TEMP:  21; 6HR MAX TEMP:  27;

GILLETTE       FAIR      26  13  57 SW13      30.00F WCI  15
6HR MIN TEMP:  21; 6HR MAX TEMP:  27;

HULETT           N/A    N/A N/A N/A MISG        N/A
NEWCASTLE      FAIR      14  10  85 CALM      30.07S

$$
WYZ014>020-022>026-101>103-240700-
CENTRAL WYOMING

CITY           SKY/WX    TMP DP  RH WIND       PRES   REMARKS
BIG PINEY      FAIR      12   5  73 VRB3      30.17F
6HR MIN TEMP:   7; 6HR MAX TEMP:  19;

PINEDALE       FAIR      18  10  73 NW14      30.14F WCI   4
DUBOIS         NOT AVBL
LANDER         FAIR      15   4  61 SE5       30.06F WCI   8
6HR MIN TEMP:  12; 6HR MAX TEMP:  23;

RIVERTON       FAIR      16   5  62 SW8       30.08R WCI   5
6HR MIN TEMP:  14; 6HR MAX TEMP:  25;

CASPER         FAIR      21   9  59 SW15      30.06F WCI   8
6HR MIN TEMP:  16; 6HR MAX TEMP:  21;

DOUGLAS        FAIR      13   9  84 CALM      30.07F
6HR MIN TEMP:  13; 6HR MAX TEMP:  26;


$$
WYZ021-027>030-104>119-240700-
SOUTHERN WYOMING

CITY           SKY/WX    TMP DP  RH WIND       PRES   REMARKS
EVANSTON       FAIR      16  11  80 SW10      30.24F WCI   4
6HR MIN TEMP:  15; 6HR MAX TEMP:  23;

FORT BRIDGER   FAIR      22   7  52 SW10G18   30.25F WCI  11
ROCK SPRINGS   NOT AVBL
DIXON          FAIR       1  -2  85 CALM      30.25S
RAWLINS        FAIR      16   7  67 W13G22    30.14F WCI   2
6HR MIN TEMP:  12; 6HR MAX TEMP:  19;

SARATOGA       FAIR      10   5  79 SE3       30.16S
LARAMIE        FAIR       3  -2  79 NE3       30.04F
6HR MIN TEMP:   2; 6HR MAX TEMP:  16;

CHEYENNE       FAIR      13   5  70 SW5       30.05F WCI   5
6HR MIN TEMP:  12; 6HR MAX TEMP:  24;

TORRINGTON     FAIR      19  13  77 CALM      30.08F
6HR MIN TEMP:  18; 6HR MAX TEMP:  30;

PINE BLUFFS    FAIR      21  12  68 NW14      30.09S WCI   8

$$


USA.gov is the U.S. government's official web portal to all federal, state and local government web resources and services.